Weather in Novomyrhorod

Ukraine / Kirovohrad Region     48°48′00″N   31°39′04″E
temp.,
°C
wind,
m/s
gust,
m/s
humid.,
%
clouds,
%
prec.,
mm/h
press.,
hPa
HPBL,
m
6 may, thu
thu600:00+11s61454100 0.0 1011539
03:00+10s71460100 0.1 1010542
06:00+10s71563100 0.0 1009553
09:00+13ssw914637 0.1 1009782
12:00+15wsw7963100 0.0 10101371
15:00+9nw4988100 0.8 1013391
18:00+13nw365677 0.0 10131382
21:00+9n11725 0.0 101410
7 may, fri
fri700:00+8w117490 0.0 101610
03:00+7s22765 0.0 101610
06:00+7ssw2376100 0.0 101629
09:00+13s4659100 0.0 1016476
12:00+16s7848100 0.0 10151440
15:00+13sse51067100 0.9 1013455
18:00+15s61166100 0.0 1010669
21:00+13s71582100 0.6 1010569
8 may, sat
sat800:00+12ssw71685100 0.8 1009463
03:00+11ssw61292100 1.1 1008381
06:00+11sw4998100 0.9 1008498
09:00+10nw61093100 2.0 1010625
12:00+9nw6983100 0.3 1013752
15:00+12nw8960100 0.3 10141623
18:00+11nnw4957100 0.0 10151606
21:00+8nw51169100 0.1 1017428
9 may, sun
sun900:00+6nw5137813 0.0 1019363
03:00+4nnw412823 0.0 1021300
06:00+3nw410850 0.0 1023237
09:00+9nnw68625 0.0 1024937
12:00+13nnw68485 0.0 10241785
15:00+15nw684197 0.0 10242589
18:00+13nnw575048 0.0 10251626
21:00+8n22705 0.0 102713
10 may, mon
mon1000:00+7n22725 0.0 102711
03:00+6nne11775 0.0 102810
06:00+5nne22725 0.0 102813
09:00+11nne35510 0.0 1028587
12:00+15nne55390 0.0 10271438
15:00+16nne67370 0.0 10261607
18:00+15nne57480 0.0 10251452
21:00+9nne49710 0.0 1025160